This demonstration page uses our WeatherBlox Daily Observations layout. Learn more.

36.17497, -115.13722

Hourly Observations for June 21, 2018

Temp ( °F °C ) Dew Point ( °F °C ) Humidity (%) Winds ( mph kmh ) Pressure ( in mb ) Visibility ( mi km ) Precip ( " mm )
12:53 am 00:53 Clear 85 29.4 35 1.7 17 17 N 6 9 29.77 1008 10 16.09344 0 0
1:53 am 01:53 Clear 86 30 32 0 14 14 Calm 29.77 1008 10 16.09344 0 0
2:53 am 02:53 Clear 83 28.3 33 0.6 17 17 Calm 29.77 1008 10 16.09344 0 0
3:53 am 03:53 Clear 80 26.7 27 -2.8 14 14 NW 7 11 29.8 1009 10 16.09344 0 0
4:53 am 04:53 Clear 78 25.6 32 0 19 19 NW 7 11 29.8 1009 10 16.09344 0 0
5:53 am 05:53 Sunny 78 25.6 36 2.2 22 22 WNW 7 11 29.83 1010 10 16.09344 0 0
6:53 am 06:53 Sunny 81 27.2 29 -1.7 15 15 NNW 6 9 29.83 1010 10 16.09344 0 0
7:53 am 07:53 Sunny 87 30.6 29 -1.7 12 12 Calm 29.83 1010 10 16.09344 0 0
8:53 am 08:53 Sunny 91 32.8 30 -1.1 11 11 Calm 29.85 1011 10 16.09344 0 0
9:53 am 09:53 Sunny 95 35 29 -1.7 9 9 ENE 6 9 29.83 1010 10 16.09344 0 0
10:53 am 10:53 Sunny 97 36.1 30 -1.1 9 9 N 6 9 29.83 1010 10 16.09344 0 0
11:53 am 11:53 Sunny 102 38.9 30 -1.1 8 8 ESE 9 15 29.8 1009 10 16.09344 0 0
12:53 pm 12:53 Sunny 106 41.1 28 -2.2 6 6 SE 10 17 29.77 1008 10 16.09344 0 0
1:53 pm 13:53 Sunny 110 43.3 18 -7.8 4 4 SW 8 13 29.74 1007 10 16.09344 0 0
2:53 pm 14:53 Sunny 110 43.3 11 -11.7 3 3 S 16 26 29.71 1006 10 16.09344 0 0
3:53 pm 15:53 Sunny 111 43.9 9 -12.8 2 2 SSW 10 17 29.68 1005 10 16.09344 0 0
4:53 pm 16:53 Sunny 111 43.9 5 -15 2 2 WSW 17 28 29.68 1005 10 16.09344 0 0
5:53 pm 17:53 Sunny 110 43.3 4 -15.6 2 2 WSW 20 31 29.65 1004 10 16.09344 0 0
6:53 pm 18:53 Sunny 108 42.2 -3 -19.4 1 1 W 17 28 29.65 1004 10 16.09344 0 0
7:53 pm 19:53 Sunny 105 40.6 11 -11.7 3 3 W 16 26 29.68 1005 10 16.09344 0 0
8:53 pm 20:53 Clear 102 38.9 14 -10 4 4 WSW 10 17 29.68 1005 10 16.09344 0 0
9:53 pm 21:53 Clear 99 37.2 14 -10 4 4 WSW 6 9 29.68 1005 10 16.09344 0 0
10:53 pm 22:53 Clear 99 37.2 4 -15.6 3 3 WSW 16 26 29.68 1005 10 16.09344 0 0
11:53 pm 23:53 Clear 99 37.2 -7 -21.7 2 2 SSW 9 15 29.68 1005 10 16.09344 0 0

Powered by AerisWeather